Regional Weather Roundup
Issued by NWS

Home | Current Version | Previous Version | Graphics & Text | Print | Product List | Glossary On
Versions: 1 2 3 4 5 6 7 8 9 10 11 12 13 14 15 16 17 18 19 20 21 22 23 24 25 26 27 28 29 30 31 32 33 34 35 36 37 38 39 40 41 42 43 44 45 46 47 48 49 50
617
ASUS43 KLMK 230902
RWRKY
KENTUCKY REGIONAL WEATHER ROUNDUP
NATIONAL WEATHER SERVICE LOUISVILLE KY
400 AM EST THU NOV 23 2017

NOTE "FAIR" INDICATES FEW OR NO CLOUDS BELOW 12,000 FEET
WITH NO SIGNIFICANT WEATHER AND/OR OBSTRUCTIONS TO VISIBILITY.

KYZ001>023-026-027-061>063-070>075-231000-
WESTERN AND SOUTH CENTRAL KENTUCKY

CITY           SKY/WX    TMP DP  RH WIND       PRES   REMARKS
PADUCAH        PTCLDY    27  22  81 CALM      30.22S
HENDERSON      PTCLDY    27  26  96 NW3       30.23S
OWENSBORO      PTCLDY    27  24  89 CALM      30.22F
HOPKINSVILLE   PTCLDY    26  20  77 CALM      30.19S
BOWLING GREEN  PTCLDY    26  24  92 CALM      30.20F
GLASGOW        NOT AVBL
$$

KYZ024-025-028>034-038-045-046-053-231000-
NORTH CENTRAL KENTUCKY

CITY           SKY/WX    TMP DP  RH WIND       PRES   REMARKS
LOUISVILLE/SDF CLOUDY    29  24  82 CALM      30.21F
LOUISVILLE/LOU CLOUDY    25  24  96 CALM      30.22F
FORT KNOX      CLOUDY    23  20  89 CALM      30.18F
$$

KYZ035>037-039>044-047>052-055>060-089>105-231000-
NORTHEAST KENTUCKY

CITY           SKY/WX    TMP DP  RH WIND       PRES   REMARKS
LEXINGTON      CLOUDY    22  17  81 CALM      30.18F
COVINGTON      CLOUDY    24  22  91 CALM      30.19F
FRANKFORT      CLOUDY    22  18  85 CALM      30.19R
$$

KYZ054-064>069-076>088-106>120-231000-
SOUTHEAST KENTUCKY

CITY           SKY/WX    TMP DP  RH WIND       PRES   REMARKS
JACKSON        CLOUDY    28  22  78 NE5       30.15S WCI  23
LONDON         CLOUDY    26  22  84 NE3       30.15S
SOMERSET       CLOUDY    27  23  86 N5        30.19S WCI  21
MIDDLESBORO    CLEAR     25  24  97 CALM      30.15S
MONTICELLO     SUNNY     19  18  95 CALM      30.18F
$$





USA.gov is the U.S. government's official web portal to all federal, state and local government web resources and services.